Time,TemperatureF,DewpointF,PressureIn,WindDirection,WindDirectionDegrees,WindSpeedMPH,WindSpeedGustMPH,Humidity,HourlyPrecipIn,Conditions,Clouds,dailyrainin,SoftwareType,DateUTC
2013-09-28 00:00:00,60.8,59.4,30.17,SW,229,0.0,0.0,95,0.00,,FEW050,0.00,VWS V14.01,2013-09-28 04:00:00,
2013-09-28 00:01:00,60.7,59.3,30.17,SW,229,0.0,0.0,95,0.00,,FEW050,0.00,VWS V14.01,2013-09-28 04:01:00,
2013-09-28 00:06:00,60.6,59.2,30.17,SW,229,0.0,0.0,95,0.00,,FEW050,0.00,VWS V14.01,2013-09-28 04:06:00,
2013-09-28 00:11:00,60.5,59.1,30.17,SW,229,0.0,0.0,95,0.00,,FEW050,0.00,VWS V14.01,2013-09-28 04:11:00,
2013-09-28 00:16:00,60.4,59.3,30.17,SW,229,0.0,0.0,96,0.00,,FEW050,0.00,VWS V14.01,2013-09-28 04:16:00,
2013-09-28 00:21:00,60.2,58.8,30.17,SW,229,0.0,0.0,95,0.00,,FEW050,0.00,VWS V14.01,2013-09-28 04:21:00,
2013-09-28 00:26:00,60.1,58.7,30.17,SW,229,0.0,0.0,95,0.00,,FEW050,0.00,VWS V14.01,2013-09-28 04:26:00,
2013-09-28 00:30:00,60.0,58.6,30.17,SW,229,0.0,0.0,95,0.00,,CLR,0.00,VWS V14.01,2013-09-28 04:30:00,
2013-09-28 00:31:00,60.0,58.9,30.17,SW,229,0.0,0.0,96,0.00,,FEW050,0.00,VWS V14.01,2013-09-28 04:31:00,
2013-09-28 00:36:00,59.9,58.5,30.17,SW,229,0.0,0.0,95,0.00,,CLR,0.00,VWS V14.01,2013-09-28 04:36:00,
2013-09-28 00:41:00,59.7,58.3,30.17,SW,229,0.0,0.0,95,0.00,,CLR,0.00,VWS V14.01,2013-09-28 04:41:00,
2013-09-28 00:46:00,59.6,58.2,30.17,SW,229,0.0,0.0,95,0.00,,CLR,0.00,VWS V14.01,2013-09-28 04:46:00,
2013-09-28 00:51:00,59.5,58.1,30.17,SW,229,0.0,0.0,95,0.00,,CLR,0.00,VWS V14.01,2013-09-28 04:51:00,
2013-09-28 00:56:00,59.4,58.3,30.17,SW,229,0.0,0.0,96,0.00,,CLR,0.00,VWS V14.01,2013-09-28 04:56:00,
2013-09-28 01:00:00,59.3,58.2,30.17,SW,229,0.0,0.0,96,0.00,,CLR,0.00,VWS V14.01,2013-09-28 05:00:00,
2013-09-28 01:01:00,59.3,58.2,30.17,SW,229,0.0,0.0,96,0.00,,CLR,0.00,VWS V14.01,2013-09-28 05:01:00,
2013-09-28 01:06:00,59.3,58.2,30.17,SW,229,0.0,0.0,96,0.00,,CLR,0.00,VWS V14.01,2013-09-28 05:06:00,
2013-09-28 01:11:00,59.2,58.1,30.17,SW,229,0.0,0.0,96,0.00,,CLR,0.00,VWS V14.01,2013-09-28 05:11:00,
2013-09-28 01:16:00,59.1,58.0,30.16,SW,229,0.0,0.0,96,0.00,,CLR,0.00,VWS V14.01,2013-09-28 05:16:00,
2013-09-28 01:21:00,59.0,57.9,30.16,SW,229,0.0,0.0,96,0.00,,CLR,0.00,VWS V14.01,2013-09-28 05:21:00,
2013-09-28 01:26:00,58.8,57.7,30.17,SW,229,0.0,0.0,96,0.00,,CLR,0.00,VWS V14.01,2013-09-28 05:26:00,
2013-09-28 01:30:00,58.8,57.7,30.17,SW,229,0.0,0.0,96,0.00,,CLR,0.00,VWS V14.01,2013-09-28 05:30:00,
2013-09-28 01:31:00,58.7,57.6,30.17,SW,229,0.0,0.0,96,0.00,,CLR,0.00,VWS V14.01,2013-09-28 05:31:00,
2013-09-28 01:36:00,58.7,57.6,30.17,SW,229,0.0,0.0,96,0.00,,CLR,0.00,VWS V14.01,2013-09-28 05:36:00,
2013-09-28 01:41:00,58.6,57.5,30.17,SW,229,0.0,0.0,96,0.00,,CLR,0.00,VWS V14.01,2013-09-28 05:41:00,
2013-09-28 01:46:00,58.6,57.8,30.17,SW,229,0.0,0.0,97,0.00,,CLR,0.00,VWS V14.01,2013-09-28 05:46:00,
2013-09-28 01:51:00,58.5,57.4,30.17,SW,229,0.0,0.0,96,0.00,,CLR,0.00,VWS V14.01,2013-09-28 05:51:00,
2013-09-28 01:56:00,58.4,57.3,30.17,SW,229,0.0,0.0,96,0.00,,CLR,0.00,VWS V14.01,2013-09-28 05:56:00,
2013-09-28 02:00:00,58.4,57.3,30.17,SW,229,0.0,0.0,96,0.00,,CLR,0.00,VWS V14.01,2013-09-28 06:00:00,
2013-09-28 02:01:00,58.3,57.2,30.17,SW,229,0.0,0.0,96,0.00,,CLR,0.00,VWS V14.01,2013-09-28 06:01:00,
2013-09-28 02:06:00,58.2,57.1,30.17,SW,229,0.0,0.0,96,0.00,,CLR,0.00,VWS V14.01,2013-09-28 06:06:00,
2013-09-28 02:11:00,58.0,56.9,30.17,SW,229,0.0,0.0,96,0.00,,CLR,0.00,VWS V14.01,2013-09-28 06:11:00,
2013-09-28 02:16:00,57.9,56.8,30.17,SW,229,0.0,0.0,96,0.00,,CLR,0.00,VWS V14.01,2013-09-28 06:16:00,
2013-09-28 02:21:00,57.8,56.7,30.17,SW,229,0.0,0.0,96,0.00,,CLR,0.00,VWS V14.01,2013-09-28 06:21:00,
2013-09-28 02:26:00,57.7,56.6,30.17,SW,229,0.0,0.0,96,0.00,,CLR,0.00,VWS V14.01,2013-09-28 06:26:00,
2013-09-28 02:30:00,57.6,56.5,30.17,SW,229,0.0,0.0,96,0.00,,CLR,0.00,VWS V14.01,2013-09-28 06:30:00,
2013-09-28 02:31:00,57.6,56.5,30.17,SW,229,0.0,0.0,96,0.00,,CLR,0.00,VWS V14.01,2013-09-28 06:31:00,
2013-09-28 02:36:00,57.5,56.4,30.17,SW,229,0.0,0.0,96,0.00,,CLR,0.00,VWS V14.01,2013-09-28 06:36:00,
2013-09-28 02:41:00,57.4,56.6,30.17,SW,229,0.0,0.0,97,0.00,,CLR,0.00,VWS V14.01,2013-09-28 06:41:00,
2013-09-28 02:46:00,57.3,56.2,30.17,SW,229,0.0,0.0,96,0.00,,CLR,0.00,VWS V14.01,2013-09-28 06:46:00,
2013-09-28 02:51:00,57.3,56.5,30.17,SW,229,0.0,0.0,97,0.00,,CLR,0.00,VWS V14.01,2013-09-28 06:51:00,
2013-09-28 02:56:00,57.3,56.5,30.17,SW,229,0.0,0.0,97,0.00,,CLR,0.00,VWS V14.01,2013-09-28 06:56:00,
2013-09-28 03:00:00,57.2,56.4,30.17,SW,229,0.0,0.0,97,0.00,,CLR,0.00,VWS V14.01,2013-09-28 07:00:00,
2013-09-28 03:01:00,57.2,56.4,30.17,SW,229,0.0,0.0,97,0.00,,CLR,0.00,VWS V14.01,2013-09-28 07:01:00,
2013-09-28 03:06:00,57.1,56.3,30.17,SW,229,0.0,0.0,97,0.00,,CLR,0.00,VWS V14.01,2013-09-28 07:06:00,
2013-09-28 03:11:00,57.1,56.3,30.17,SW,229,0.0,0.0,97,0.00,,CLR,0.00,VWS V14.01,2013-09-28 07:11:00,
2013-09-28 03:16:00,57.0,56.2,30.17,SW,229,0.0,0.0,97,0.00,,CLR,0.00,VWS V14.01,2013-09-28 07:16:00,
2013-09-28 03:21:00,56.9,56.1,30.16,SW,229,0.0,0.0,97,0.00,,CLR,0.00,VWS V14.01,2013-09-28 07:21:00,
2013-09-28 03:26:00,56.8,56.0,30.17,SW,229,0.0,0.0,97,0.00,,CLR,0.00,VWS V14.01,2013-09-28 07:26:00,
2013-09-28 03:30:00,56.8,56.0,30.17,SW,229,0.0,0.0,97,0.00,,CLR,0.00,VWS V14.01,2013-09-28 07:30:00,
2013-09-28 03:31:00,56.8,56.0,30.17,SW,229,0.0,0.0,97,0.00,,CLR,0.00,VWS V14.01,2013-09-28 07:31:00,
2013-09-28 03:36:00,56.7,55.9,30.17,SW,229,0.0,0.0,97,0.00,,CLR,0.00,VWS V14.01,2013-09-28 07:36:00,
2013-09-28 03:41:00,56.6,55.8,30.16,SW,229,0.0,0.0,97,0.00,,CLR,0.00,VWS V14.01,2013-09-28 07:41:00,
2013-09-28 03:46:00,56.6,55.8,30.17,SW,229,0.0,0.0,97,0.00,,CLR,0.00,VWS V14.01,2013-09-28 07:46:00,
2013-09-28 03:51:00,56.5,55.7,30.17,SW,229,0.0,0.0,97,0.00,,CLR,0.00,VWS V14.01,2013-09-28 07:51:00,
2013-09-28 03:56:00,56.4,55.6,30.17,SW,229,0.0,0.0,97,0.00,,CLR,0.00,VWS V14.01,2013-09-28 07:56:00,
2013-09-28 04:00:00,56.4,55.6,30.17,SW,229,0.0,0.0,97,0.00,,CLR,0.00,VWS V14.01,2013-09-28 08:00:00,
2013-09-28 04:01:00,56.3,55.5,30.17,SW,229,0.0,0.0,97,0.00,,CLR,0.00,VWS V14.01,2013-09-28 08:01:00,
2013-09-28 04:06:00,56.2,55.4,30.17,SW,229,0.0,0.0,97,0.00,,CLR,0.00,VWS V14.01,2013-09-28 08:06:00,
2013-09-28 04:11:00,56.1,55.3,30.17,SW,229,0.0,0.0,97,0.00,,CLR,0.00,VWS V14.01,2013-09-28 08:11:00,
2013-09-28 04:16:00,56.0,55.2,30.17,SW,229,0.0,0.0,97,0.00,,CLR,0.00,VWS V14.01,2013-09-28 08:16:00,
2013-09-28 04:21:00,55.9,55.1,30.17,SW,229,0.0,0.0,97,0.00,,CLR,0.00,VWS V14.01,2013-09-28 08:21:00,
2013-09-28 04:26:00,55.8,55.0,30.17,SW,229,0.0,0.0,97,0.00,,CLR,0.00,VWS V14.01,2013-09-28 08:26:00,
2013-09-28 04:30:00,55.8,55.0,30.17,SW,229,0.0,0.0,97,0.00,,CLR,0.00,VWS V14.01,2013-09-28 08:30:00,
2013-09-28 04:31:00,55.8,55.0,30.17,SW,229,0.0,0.0,97,0.00,,CLR,0.00,VWS V14.01,2013-09-28 08:31:00,
2013-09-28 04:36:00,55.7,54.9,30.17,SW,229,0.0,0.0,97,0.00,,CLR,0.00,VWS V14.01,2013-09-28 08:36:00,
2013-09-28 04:41:00,55.7,54.9,30.17,SW,229,0.0,0.0,97,0.00,,CLR,0.00,VWS V14.01,2013-09-28 08:41:00,
2013-09-28 04:46:00,55.6,54.8,30.17,SW,229,0.0,0.0,97,0.00,,CLR,0.00,VWS V14.01,2013-09-28 08:46:00,
2013-09-28 04:51:00,55.6,54.8,30.17,SW,229,0.0,0.0,97,0.00,,CLR,0.00,VWS V14.01,2013-09-28 08:51:00,
2013-09-28 04:56:00,55.7,54.9,30.17,SW,229,0.0,0.0,97,0.00,,CLR,0.00,VWS V14.01,2013-09-28 08:56:00,
2013-09-28 05:00:00,55.7,54.9,30.17,SW,229,0.0,0.0,97,0.00,,CLR,0.00,VWS V14.01,2013-09-28 09:00:00,
2013-09-28 05:01:00,55.7,54.9,30.17,SW,229,0.0,0.0,97,0.00,,CLR,0.00,VWS V14.01,2013-09-28 09:01:00,
2013-09-28 05:06:00,55.7,54.9,30.17,SW,229,0.0,0.0,97,0.00,,CLR,0.00,VWS V14.01,2013-09-28 09:06:00,
2013-09-28 05:11:00,55.7,54.9,30.18,SW,229,0.0,0.0,97,0.00,,CLR,0.00,VWS V14.01,2013-09-28 09:11:00,
2013-09-28 05:16:00,55.7,54.9,30.18,SW,229,0.0,0.0,97,0.00,,CLR,0.00,VWS V14.01,2013-09-28 09:16:00,
2013-09-28 05:21:00,55.6,54.8,30.18,SW,229,0.0,0.0,97,0.00,,CLR,0.00,VWS V14.01,2013-09-28 09:21:00,
2013-09-28 05:26:00,55.5,54.7,30.18,SW,229,0.0,0.0,97,0.00,,CLR,0.00,VWS V14.01,2013-09-28 09:26:00,
2013-09-28 05:30:00,55.5,54.7,30.18,SW,229,0.0,0.0,97,0.00,,CLR,0.00,VWS V14.01,2013-09-28 09:30:00,
2013-09-28 05:31:00,55.5,54.7,30.18,SW,229,0.0,0.0,97,0.00,,CLR,0.00,VWS V14.01,2013-09-28 09:31:00,
2013-09-28 05:36:00,55.4,54.6,30.18,SW,229,0.0,0.0,97,0.00,,CLR,0.00,VWS V14.01,2013-09-28 09:36:00,
2013-09-28 05:41:00,55.4,54.6,30.18,SW,229,0.0,0.0,97,0.00,,CLR,0.00,VWS V14.01,2013-09-28 09:41:00,
2013-09-28 05:46:00,55.3,54.5,30.18,SW,229,0.0,0.0,97,0.00,,CLR,0.00,VWS V14.01,2013-09-28 09:46:00,
2013-09-28 05:51:00,55.2,54.4,30.18,SW,229,0.0,0.0,97,0.00,,CLR,0.00,VWS V14.01,2013-09-28 09:51:00,
2013-09-28 05:56:00,55.0,54.2,30.18,SW,229,0.0,0.0,97,0.00,,CLR,0.00,VWS V14.01,2013-09-28 09:56:00,
2013-09-28 06:00:00,55.0,54.2,30.19,SW,229,0.0,0.0,97,0.00,,CLR,0.00,VWS V14.01,2013-09-28 10:00:00,
2013-09-28 06:01:00,54.9,54.1,30.19,SW,229,0.0,0.0,97,0.00,,CLR,0.00,VWS V14.01,2013-09-28 10:01:00,
2013-09-28 06:06:00,54.8,54.0,30.19,SW,229,0.0,0.0,97,0.00,,CLR,0.00,VWS V14.01,2013-09-28 10:06:00,
2013-09-28 06:11:00,54.8,54.0,30.19,SW,229,0.0,0.0,97,0.00,,CLR,0.00,VWS V14.01,2013-09-28 10:11:00,
2013-09-28 06:16:00,54.6,53.8,30.19,SW,229,0.0,0.0,97,0.00,,CLR,0.00,VWS V14.01,2013-09-28 10:16:00,
2013-09-28 06:21:00,54.5,53.7,30.19,SW,229,0.0,0.0,97,0.00,,CLR,0.00,VWS V14.01,2013-09-28 10:21:00,
2013-09-28 06:26:00,54.4,53.6,30.19,SW,229,0.0,0.0,97,0.00,,CLR,0.00,VWS V14.01,2013-09-28 10:26:00,
2013-09-28 06:30:00,54.3,53.5,30.19,SW,229,0.0,0.0,97,0.00,,CLR,0.00,VWS V14.01,2013-09-28 10:30:00,
2013-09-28 06:31:00,54.3,53.5,30.19,SW,229,0.0,0.0,97,0.00,,CLR,0.00,VWS V14.01,2013-09-28 10:31:00,
2013-09-28 06:36:00,54.2,53.4,30.19,SW,229,0.0,0.0,97,0.00,,CLR,0.00,VWS V14.01,2013-09-28 10:36:00,
2013-09-28 06:41:00,54.2,53.7,30.19,SW,229,0.0,0.0,98,0.00,,CLR,0.00,VWS V14.01,2013-09-28 10:41:00,
2013-09-28 06:46:00,54.2,53.4,30.20,SW,229,0.0,0.0,97,0.00,,CLR,0.00,VWS V14.01,2013-09-28 10:46:00,
2013-09-28 06:51:00,54.1,53.5,30.20,SW,229,0.0,0.0,98,0.00,,CLR,0.00,VWS V14.01,2013-09-28 10:51:00,
2013-09-28 06:56:00,54.1,53.5,30.20,SW,229,0.0,0.0,98,0.00,,CLR,0.00,VWS V14.01,2013-09-28 10:56:00,
2013-09-28 07:00:00,54.1,53.5,30.20,SW,229,0.0,0.0,98,0.00,,CLR,0.00,VWS V14.01,2013-09-28 11:00:00,
2013-09-28 07:01:00,54.1,53.5,30.20,SW,229,0.0,0.0,98,0.00,,CLR,0.00,VWS V14.01,2013-09-28 11:01:00,
2013-09-28 07:06:00,54.1,53.5,30.20,SW,229,0.0,0.0,98,0.00,,CLR,0.00,VWS V14.01,2013-09-28 11:06:00,
2013-09-28 07:11:00,54.0,53.5,30.20,SW,229,0.0,0.0,98,0.00,,CLR,0.00,VWS V14.01,2013-09-28 11:11:00,
2013-09-28 07:16:00,54.0,53.5,30.21,SW,229,0.0,0.0,98,0.00,,CLR,0.00,VWS V14.01,2013-09-28 11:16:00,
2013-09-28 07:21:00,54.0,53.5,30.21,SW,229,0.0,0.0,98,0.01,,CLR,0.01,VWS V14.01,2013-09-28 11:21:00,
2013-09-28 07:26:00,54.1,53.5,30.21,SW,229,0.0,0.0,98,0.01,,CLR,0.01,VWS V14.01,2013-09-28 11:26:00,
2013-09-28 07:30:00,54.1,53.5,30.21,SW,229,0.0,0.0,98,0.01,,CLR,0.01,VWS V14.01,2013-09-28 11:30:00,
2013-09-28 07:31:00,54.1,53.5,30.21,SW,229,0.0,0.0,98,0.01,,CLR,0.01,VWS V14.01,2013-09-28 11:31:00,
2013-09-28 07:36:00,54.1,53.5,30.22,SW,229,0.0,0.0,98,0.01,,CLR,0.01,VWS V14.01,2013-09-28 11:36:00,
2013-09-28 07:41:00,54.1,53.5,30.22,SW,229,0.0,0.0,98,0.01,,CLR,0.01,VWS V14.01,2013-09-28 11:41:00,
2013-09-28 07:46:00,54.1,53.5,30.22,SW,229,0.0,0.0,98,0.01,,CLR,0.01,VWS V14.01,2013-09-28 11:46:00,
2013-09-28 07:51:00,54.1,53.5,30.22,SW,229,0.0,0.0,98,0.01,,CLR,0.01,VWS V14.01,2013-09-28 11:51:00,
2013-09-28 07:56:00,54.1,53.5,30.22,SW,229,0.0,0.0,98,0.01,,CLR,0.01,VWS V14.01,2013-09-28 11:56:00,
2013-09-28 08:00:00,54.2,53.7,30.22,SW,229,0.0,0.0,98,0.01,,CLR,0.01,VWS V14.01,2013-09-28 12:00:00,
2013-09-28 08:01:00,54.2,53.7,30.22,SW,229,0.0,0.0,98,0.01,,CLR,0.01,VWS V14.01,2013-09-28 12:01:00,
2013-09-28 08:06:00,54.2,53.7,30.23,SW,229,0.0,0.0,98,0.01,,CLR,0.01,VWS V14.01,2013-09-28 12:06:00,
2013-09-28 08:11:00,54.3,53.8,30.23,SW,229,0.0,0.0,98,0.01,,CLR,0.01,VWS V14.01,2013-09-28 12:11:00,
2013-09-28 08:16:00,54.4,53.8,30.23,SW,229,0.0,0.0,98,0.01,,CLR,0.01,VWS V14.01,2013-09-28 12:16:00,
2013-09-28 08:21:00,54.6,54.0,30.23,SW,229,0.0,0.0,98,0.01,,CLR,0.01,VWS V14.01,2013-09-28 12:21:00,
2013-09-28 08:26:00,54.8,54.2,30.23,SW,229,0.0,0.0,98,0.01,,CLR,0.01,VWS V14.01,2013-09-28 12:26:00,
2013-09-28 08:30:00,55.0,54.5,30.23,SW,229,0.0,0.0,98,0.01,,CLR,0.01,VWS V14.01,2013-09-28 12:30:00,
2013-09-28 08:31:00,55.0,54.5,30.23,SW,229,0.0,0.0,98,0.00,,CLR,0.01,VWS V14.01,2013-09-28 12:31:00,
2013-09-28 08:36:00,55.3,54.8,30.24,SW,229,0.0,0.0,98,0.00,,CLR,0.01,VWS V14.01,2013-09-28 12:36:00,
2013-09-28 08:41:00,55.7,55.4,30.24,NNW,345,0.0,1.0,99,0.00,,CLR,0.01,VWS V14.01,2013-09-28 12:41:00,
2013-09-28 08:46:00,56.2,55.9,30.24,NNW,346,0.0,1.0,99,0.00,,CLR,0.01,VWS V14.01,2013-09-28 12:46:00,
2013-09-28 08:51:00,56.7,56.1,30.24,WNW,298,0.0,1.0,98,0.00,,CLR,0.01,VWS V14.01,2013-09-28 12:51:00,
2013-09-28 08:56:00,57.2,56.6,30.24,WSW,253,0.0,1.0,98,0.00,,CLR,0.01,VWS V14.01,2013-09-28 12:56:00,
2013-09-28 09:00:00,57.6,57.3,30.24,WSW,253,0.0,1.0,99,0.00,,CLR,0.01,VWS V14.01,2013-09-28 13:00:00,
2013-09-28 09:01:00,57.8,57.5,30.24,WSW,253,0.0,0.0,99,0.00,,CLR,0.01,VWS V14.01,2013-09-28 13:01:00,
2013-09-28 09:06:00,58.6,58.3,30.24,West,265,0.0,1.0,99,0.00,,CLR,0.01,VWS V14.01,2013-09-28 13:06:00,
2013-09-28 09:11:00,59.2,58.6,30.24,SSW,207,0.0,4.0,98,0.00,,CLR,0.01,VWS V14.01,2013-09-28 13:11:00,
2013-09-28 09:16:00,59.9,58.8,30.24,SE,134,0.0,4.0,96,0.00,,CLR,0.01,VWS V14.01,2013-09-28 13:16:00,
2013-09-28 09:21:00,60.6,58.9,30.24,ENE,70,0.0,4.0,94,0.00,,CLR,0.01,VWS V14.01,2013-09-28 13:21:00,
2013-09-28 09:26:00,61.3,58.7,30.25,SSW,197,0.0,4.0,91,0.00,,CLR,0.01,VWS V14.01,2013-09-28 13:26:00,
2013-09-28 09:30:00,61.8,59.2,30.25,ENE,67,0.0,4.0,91,0.00,,CLR,0.01,VWS V14.01,2013-09-28 13:30:00,
2013-09-28 09:31:00,62.0,58.7,30.25,SSW,202,0.0,3.0,89,0.00,,CLR,0.01,VWS V14.01,2013-09-28 13:31:00,
2013-09-28 09:36:00,62.5,59.2,30.25,North,5,0.0,3.0,89,0.00,,CLR,0.01,VWS V14.01,2013-09-28 13:36:00,
2013-09-28 09:41:00,63.2,59.6,30.25,East,84,0.0,3.0,88,0.00,,CLR,0.01,VWS V14.01,2013-09-28 13:41:00,
2013-09-28 09:46:00,63.8,58.9,30.25,East,89,0.0,4.0,84,0.00,,CLR,0.01,VWS V14.01,2013-09-28 13:46:00,
2013-09-28 09:51:00,64.4,58.8,30.25,WSW,241,1.0,4.0,82,0.00,,CLR,0.01,VWS V14.01,2013-09-28 13:51:00,
2013-09-28 09:56:00,64.8,58.5,30.25,North,5,0.0,4.0,80,0.00,,CLR,0.01,VWS V14.01,2013-09-28 13:56:00,
2013-09-28 10:00:00,65.0,58.0,30.25,SW,221,3.0,5.0,78,0.00,,CLR,0.01,VWS V14.01,2013-09-28 14:00:00,
2013-09-28 10:01:00,65.1,58.1,30.25,ESE,107,1.0,6.0,78,0.00,,CLR,0.01,VWS V14.01,2013-09-28 14:01:00,
2013-09-28 10:06:00,65.3,58.3,30.25,SW,233,0.0,6.0,78,0.00,,CLR,0.01,VWS V14.01,2013-09-28 14:06:00,
2013-09-28 10:11:00,65.8,58.8,30.25,ENE,62,0.0,6.0,78,0.00,,CLR,0.01,VWS V14.01,2013-09-28 14:11:00,
2013-09-28 10:16:00,66.5,59.1,30.25,South,188,4.0,6.0,77,0.00,,CLR,0.01,VWS V14.01,2013-09-28 14:16:00,
2013-09-28 10:21:00,66.9,58.3,30.25,NNE,25,1.0,6.0,74,0.00,,CLR,0.01,VWS V14.01,2013-09-28 14:21:00,
2013-09-28 10:26:00,67.4,58.8,30.25,SW,215,0.0,6.0,74,0.00,,CLR,0.01,VWS V14.01,2013-09-28 14:26:00,
2013-09-28 10:30:00,67.7,59.1,30.26,North,360,3.0,6.0,74,0.00,,CLR,0.01,VWS V14.01,2013-09-28 14:30:00,
2013-09-28 10:31:00,67.8,58.8,30.25,North,9,0.0,7.0,73,0.00,,CLR,0.01,VWS V14.01,2013-09-28 14:31:00,
2013-09-28 10:36:00,68.0,58.3,30.26,West,259,3.0,7.0,71,0.00,,CLR,0.01,VWS V14.01,2013-09-28 14:36:00,
2013-09-28 10:41:00,68.3,58.5,30.25,East,100,0.0,7.0,71,0.00,,CLR,0.01,VWS V14.01,2013-09-28 14:41:00,
2013-09-28 10:46:00,68.4,59.0,30.25,ESE,116,3.0,7.0,72,0.00,,CLR,0.01,VWS V14.01,2013-09-28 14:46:00,
2013-09-28 10:51:00,68.6,58.4,30.25,SW,222,3.0,7.0,70,0.00,,CLR,0.01,VWS V14.01,2013-09-28 14:51:00,
2013-09-28 10:56:00,69.1,58.9,30.25,ENE,67,3.0,7.0,70,0.00,,CLR,0.01,VWS V14.01,2013-09-28 14:56:00,
2013-09-28 11:00:00,69.2,58.2,30.25,East,100,1.0,7.0,68,0.00,,CLR,0.01,VWS V14.01,2013-09-28 15:00:00,
2013-09-28 11:01:00,69.3,58.7,30.25,West,269,0.0,2.0,69,0.00,,CLR,0.01,VWS V14.01,2013-09-28 15:01:00,
2013-09-28 11:06:00,69.6,59.8,30.25,NE,53,2.0,4.0,71,0.00,,CLR,0.01,VWS V14.01,2013-09-28 15:06:00,
2013-09-28 11:11:00,70.0,57.7,30.25,South,185,5.0,7.0,65,0.00,,CLR,0.01,VWS V14.01,2013-09-28 15:11:00,
2013-09-28 11:16:00,70.1,58.2,30.25,NNW,335,0.0,7.0,66,0.00,,CLR,0.01,VWS V14.01,2013-09-28 15:16:00,
2013-09-28 11:21:00,70.3,58.4,30.25,NNE,22,1.0,7.0,66,0.00,,CLR,0.01,VWS V14.01,2013-09-28 15:21:00,
2013-09-28 11:26:00,70.1,58.2,30.25,ENE,59,1.0,7.0,66,0.00,,CLR,0.01,VWS V14.01,2013-09-28 15:26:00,
2013-09-28 11:30:00,70.4,58.1,30.25,NNE,32,0.0,7.0,65,0.00,,CLR,0.01,VWS V14.01,2013-09-28 15:30:00,
2013-09-28 11:31:00,70.7,58.4,30.25,SE,132,2.0,4.0,65,0.00,,CLR,0.01,VWS V14.01,2013-09-28 15:31:00,
2013-09-28 11:36:00,70.8,58.9,30.25,North,9,1.0,7.0,66,0.00,,CLR,0.01,VWS V14.01,2013-09-28 15:36:00,
2013-09-28 11:41:00,71.2,59.7,30.25,ENE,70,0.0,7.0,67,0.00,,CLR,0.01,VWS V14.01,2013-09-28 15:41:00,
2013-09-28 11:46:00,71.7,59.3,30.25,South,187,0.0,7.0,65,0.00,,CLR,0.01,VWS V14.01,2013-09-28 15:46:00,
2013-09-28 11:51:00,72.2,59.4,30.25,WSW,247,0.0,7.0,64,0.00,,CLR,0.01,VWS V14.01,2013-09-28 15:51:00,
2013-09-28 11:56:00,72.9,59.1,30.25,North,5,0.0,7.0,62,0.00,,CLR,0.01,VWS V14.01,2013-09-28 15:56:00,
2013-09-28 12:00:00,73.2,59.9,30.25,SW,220,0.0,7.0,63,0.00,,CLR,0.01,VWS V14.01,2013-09-28 16:00:00,
2013-09-28 12:01:00,73.3,59.5,30.25,NNE,22,2.0,3.0,62,0.00,,CLR,0.01,VWS V14.01,2013-09-28 16:01:00,
2013-09-28 12:06:00,73.7,59.9,30.25,SW,219,0.0,5.0,62,0.00,,CLR,0.01,VWS V14.01,2013-09-28 16:06:00,
2013-09-28 12:11:00,72.9,58.7,30.25,ESE,111,1.0,5.0,61,0.00,,CLR,0.01,VWS V14.01,2013-09-28 16:11:00,
2013-09-28 12:16:00,72.4,58.7,30.25,SW,218,0.0,5.0,62,0.00,,CLR,0.01,VWS V14.01,2013-09-28 16:16:00,
2013-09-28 12:20:00,71.8,57.6,30.24,SW,234,0.0,8.0,61,0.00,,CLR,0.01,VWS V14.01,2013-09-28 16:20:00,
2013-09-28 12:25:00,72.2,58.9,30.24,NNE,21,1.0,8.0,63,0.00,,CLR,0.01,VWS V14.01,2013-09-28 16:25:00,
2013-09-28 12:30:00,73.0,59.2,30.24,East,84,0.0,3.0,62,0.00,,CLR,0.01,VWS V14.01,2013-09-28 16:30:00,
2013-09-28 12:35:00,73.5,60.2,30.24,North,5,2.0,3.0,63,0.00,,CLR,0.01,VWS V14.01,2013-09-28 16:35:00,
2013-09-28 12:40:00,73.8,59.1,30.24,NNE,18,0.0,6.0,60,0.00,,CLR,0.01,VWS V14.01,2013-09-28 16:40:00,
2013-09-28 12:45:00,73.0,57.8,30.24,North,9,0.0,6.0,59,0.00,,CLR,0.01,VWS V14.01,2013-09-28 16:45:00,
2013-09-28 12:50:00,73.1,58.9,30.24,SW,231,0.0,6.0,61,0.00,,CLR,0.01,VWS V14.01,2013-09-28 16:50:00,
2013-09-28 12:55:00,73.1,57.9,30.24,SW,215,5.0,6.0,59,0.00,,CLR,0.01,VWS V14.01,2013-09-28 16:55:00,
2013-09-28 13:00:00,72.4,57.8,30.24,South,184,1.0,4.0,60,0.00,,CLR,0.01,VWS V14.01,2013-09-28 17:00:00,
2013-09-28 13:05:00,72.4,57.8,30.23,SSW,202,1.0,5.0,60,0.00,,CLR,0.01,VWS V14.01,2013-09-28 17:05:00,
2013-09-28 13:10:00,73.0,58.8,30.23,West,276,0.0,5.0,61,0.00,,CLR,0.01,VWS V14.01,2013-09-28 17:10:00,
2013-09-28 13:15:00,72.8,57.7,30.23,SSW,197,2.0,9.0,59,0.00,,CLR,0.01,VWS V14.01,2013-09-28 17:15:00,
2013-09-28 13:20:00,72.9,58.2,30.23,ESE,117,0.0,9.0,60,0.00,,CLR,0.01,VWS V14.01,2013-09-28 17:20:00,
2013-09-28 13:25:00,73.8,58.1,30.23,ENE,74,0.0,9.0,58,0.00,,CLR,0.01,VWS V14.01,2013-09-28 17:25:00,
2013-09-28 13:30:00,74.6,59.8,30.22,West,271,1.0,2.0,60,0.00,,CLR,0.01,VWS V14.01,2013-09-28 17:30:00,
2013-09-28 13:35:00,74.5,58.3,30.22,South,190,0.0,5.0,57,0.00,,BKN038,0.01,VWS V14.01,2013-09-28 17:35:00,
2013-09-28 13:40:00,74.8,58.6,30.22,WSW,245,0.0,5.0,57,0.00,,BKN038,0.01,VWS V14.01,2013-09-28 17:40:00,
2013-09-28 13:45:00,74.3,58.1,30.22,SW,215,1.0,5.0,57,0.00,,BKN038,0.01,VWS V14.01,2013-09-28 17:45:00,
2013-09-28 13:50:00,74.9,58.2,30.22,South,176,1.0,5.0,56,0.00,,BKN038,0.01,VWS V14.01,2013-09-28 17:50:00,
2013-09-28 13:55:00,75.3,59.0,30.21,SW,214,3.0,5.0,57,0.00,,BKN038,0.01,VWS V14.01,2013-09-28 17:55:00,
2013-09-28 14:00:00,75.9,58.1,30.21,SSW,211,5.0,5.0,54,0.00,,BKN038,0.01,VWS V14.01,2013-09-28 18:00:00,
2013-09-28 14:05:00,75.9,58.6,30.21,SW,228,2.0,5.0,55,0.00,,BKN038,0.01,VWS V14.01,2013-09-28 18:05:00,
2013-09-28 14:10:00,75.9,58.6,30.20,North,355,0.0,6.0,55,0.00,,BKN038,0.01,VWS V14.01,2013-09-28 18:10:00,
2013-09-28 14:15:00,76.0,59.2,30.20,West,281,0.0,6.0,56,0.00,,BKN038,0.01,VWS V14.01,2013-09-28 18:15:00,
2013-09-28 14:20:00,76.3,59.0,30.20,NNE,17,6.0,7.0,55,0.00,,BKN038,0.01,VWS V14.01,2013-09-28 18:20:00,
2013-09-28 14:25:00,76.2,57.8,30.20,East,80,0.0,8.0,53,0.00,,BKN038,0.01,VWS V14.01,2013-09-28 18:25:00,
2013-09-28 14:30:00,75.8,59.0,30.20,SW,217,1.0,1.0,56,0.00,,BKN038,0.01,VWS V14.01,2013-09-28 18:30:00,
2013-09-28 14:35:00,76.2,59.4,30.19,SW,222,0.0,4.0,56,0.00,,BKN042,0.01,VWS V14.01,2013-09-28 18:35:00,
2013-09-28 14:40:00,75.9,59.6,30.19,SE,134,0.0,4.0,57,0.00,,BKN042,0.01,VWS V14.01,2013-09-28 18:40:00,
2013-09-28 14:45:00,76.2,58.9,30.19,SW,225,0.0,5.0,55,0.00,,BKN042,0.01,VWS V14.01,2013-09-28 18:45:00,
2013-09-28 14:50:00,76.4,59.6,30.19,SSE,163,1.0,5.0,56,0.00,,BKN042,0.01,VWS V14.01,2013-09-28 18:50:00,
2013-09-28 14:55:00,76.8,59.4,30.19,SW,221,1.0,5.0,55,0.00,,BKN042,0.01,VWS V14.01,2013-09-28 18:55:00,
2013-09-28 15:00:00,76.5,57.0,30.19,South,187,0.0,4.0,51,0.00,,BKN042,0.01,VWS V14.01,2013-09-28 19:00:00,
2013-09-28 15:05:00,76.0,58.7,30.19,SW,232,0.0,4.0,55,0.00,,BKN042,0.01,VWS V14.01,2013-09-28 19:05:00,
2013-09-28 15:10:00,75.8,59.0,30.19,WSW,251,0.0,4.0,56,0.00,,BKN042,0.01,VWS V14.01,2013-09-28 19:10:00,
2013-09-28 15:15:00,75.7,57.9,30.19,NNE,33,2.0,4.0,54,0.00,,BKN042,0.01,VWS V14.01,2013-09-28 19:15:00,
2013-09-28 15:20:00,75.6,57.8,30.18,WSW,254,0.0,4.0,54,0.00,,BKN042,0.01,VWS V14.01,2013-09-28 19:20:00,
2013-09-28 15:25:00,75.3,59.0,30.18,SSW,195,0.0,4.0,57,0.00,,BKN042,0.01,VWS V14.01,2013-09-28 19:25:00,
2013-09-28 15:30:00,75.0,60.2,30.18,SSW,201,0.0,0.0,60,0.00,,BKN042,0.01,VWS V14.01,2013-09-28 19:30:00,
2013-09-28 15:35:00,75.8,59.0,30.18,SSW,207,0.0,4.0,56,0.00,,SCT044,0.01,VWS V14.01,2013-09-28 19:35:00,
2013-09-28 15:40:00,76.4,57.5,30.18,South,190,2.0,5.0,52,0.00,,SCT044,0.01,VWS V14.01,2013-09-28 19:40:00,
2013-09-28 15:45:00,76.2,57.8,30.18,WSW,237,2.0,6.0,53,0.00,,SCT044,0.01,VWS V14.01,2013-09-28 19:45:00,
2013-09-28 15:50:00,76.5,57.6,30.17,NNE,12,0.0,6.0,52,0.00,,SCT044,0.01,VWS V14.01,2013-09-28 19:50:00,
2013-09-28 15:55:00,77.3,57.8,30.18,East,95,1.0,6.0,51,0.00,,SCT044,0.01,VWS V14.01,2013-09-28 19:55:00,
2013-09-28 16:00:00,77.5,58.0,30.18,SW,220,2.0,4.0,51,0.00,,SCT044,0.01,VWS V14.01,2013-09-28 20:00:00,
2013-09-28 16:05:00,76.7,59.3,30.18,North,360,0.0,4.0,55,0.00,,SCT044,0.01,VWS V14.01,2013-09-28 20:05:00,
2013-09-28 16:10:00,75.5,59.7,30.18,WSW,248,0.0,4.0,58,0.00,,SCT044,0.01,VWS V14.01,2013-09-28 20:10:00,
2013-09-28 16:15:00,75.2,58.9,30.17,South,180,1.0,4.0,57,0.00,,SCT044,0.01,VWS V14.01,2013-09-28 20:15:00,
2013-09-28 16:20:00,75.6,57.3,30.17,WSW,252,0.0,6.0,53,0.00,,SCT044,0.01,VWS V14.01,2013-09-28 20:20:00,
2013-09-28 16:25:00,76.1,58.3,30.17,WNW,300,1.0,6.0,54,0.00,,SCT044,0.01,VWS V14.01,2013-09-28 20:25:00,
2013-09-28 16:30:00,76.0,58.2,30.17,NNE,31,1.0,7.0,54,0.00,,SCT044,0.01,VWS V14.01,2013-09-28 20:30:00,
2013-09-28 16:35:00,75.4,58.6,30.17,North,5,4.0,7.0,56,0.00,,BKN046,0.01,VWS V14.01,2013-09-28 20:35:00,
2013-09-28 16:40:00,75.1,57.8,30.17,SSW,196,0.0,7.0,55,0.00,,BKN046,0.01,VWS V14.01,2013-09-28 20:40:00,
2013-09-28 16:45:00,75.3,58.0,30.17,ESE,121,0.0,7.0,55,0.00,,BKN046,0.01,VWS V14.01,2013-09-28 20:45:00,
2013-09-28 16:50:00,75.5,58.2,30.17,SSW,211,5.0,8.0,55,0.00,,BKN046,0.01,VWS V14.01,2013-09-28 20:50:00,
2013-09-28 16:55:00,75.5,58.2,30.17,East,101,0.0,8.0,55,0.00,,BKN046,0.01,VWS V14.01,2013-09-28 20:55:00,
2013-09-28 17:00:00,75.8,58.5,30.16,SSW,200,2.0,4.0,55,0.00,,BKN046,0.01,VWS V14.01,2013-09-28 21:00:00,
2013-09-28 17:05:00,75.7,58.9,30.16,ENE,65,1.0,4.0,56,0.00,,BKN046,0.01,VWS V14.01,2013-09-28 21:05:00,
2013-09-28 17:10:00,75.7,57.9,30.16,North,349,0.0,4.0,54,0.00,,BKN046,0.01,VWS V14.01,2013-09-28 21:10:00,
2013-09-28 17:15:00,75.6,59.3,30.16,SSE,163,0.0,4.0,57,0.00,,BKN046,0.01,VWS V14.01,2013-09-28 21:15:00,
2013-09-28 17:20:00,75.4,58.1,30.16,South,183,0.0,4.0,55,0.00,,BKN046,0.01,VWS V14.01,2013-09-28 21:20:00,
2013-09-28 17:25:00,75.2,58.9,30.16,SW,221,0.0,4.0,57,0.00,,BKN046,0.01,VWS V14.01,2013-09-28 21:25:00,
2013-09-28 17:30:00,74.6,58.4,30.16,East,83,0.0,1.0,57,0.00,,BKN046,0.01,VWS V14.01,2013-09-28 21:30:00,
2013-09-28 17:35:00,75.0,58.8,30.15,South,170,0.0,2.0,57,0.00,,FEW048,0.01,VWS V14.01,2013-09-28 21:35:00,
2013-09-28 17:40:00,74.7,58.5,30.15,NNE,24,1.0,5.0,57,0.00,,FEW048,0.01,VWS V14.01,2013-09-28 21:40:00,
2013-09-28 17:45:00,74.9,57.7,30.15,North,355,4.0,7.0,55,0.00,,FEW048,0.01,VWS V14.01,2013-09-28 21:45:00,
2013-09-28 17:50:00,75.2,56.4,30.15,West,263,0.0,7.0,52,0.00,,FEW048,0.01,VWS V14.01,2013-09-28 21:50:00,
2013-09-28 17:55:00,75.0,58.3,30.15,ENE,74,2.0,7.0,56,0.00,,FEW048,0.01,VWS V14.01,2013-09-28 21:55:00,
2013-09-28 18:00:00,74.6,57.4,30.15,SE,128,0.0,2.0,55,0.00,,FEW048,0.01,VWS V14.01,2013-09-28 22:00:00,
2013-09-28 18:05:00,74.0,57.8,30.15,SSE,155,0.0,3.0,57,0.00,,FEW048,0.01,VWS V14.01,2013-09-28 22:05:00,
2013-09-28 18:10:00,73.7,58.0,30.15,East,92,0.0,3.0,58,0.00,,FEW048,0.01,VWS V14.01,2013-09-28 22:10:00,
2013-09-28 18:15:00,73.3,58.6,30.15,SE,136,0.0,3.0,60,0.00,,FEW048,0.01,VWS V14.01,2013-09-28 22:15:00,
2013-09-28 18:20:00,73.1,58.4,30.15,SSE,163,1.0,3.0,60,0.00,,FEW048,0.01,VWS V14.01,2013-09-28 22:20:00,
2013-09-28 18:25:00,72.1,58.8,30.15,SW,217,0.0,3.0,63,0.00,,FEW048,0.01,VWS V14.01,2013-09-28 22:25:00,
2013-09-28 18:30:00,71.2,58.8,30.15,West,275,0.0,0.0,65,0.00,,FEW048,0.01,VWS V14.01,2013-09-28 22:30:00,
2013-09-28 18:35:00,70.9,59.4,30.15,West,275,0.0,0.0,67,0.00,,FEW045,0.01,VWS V14.01,2013-09-28 22:35:00,
2013-09-28 18:40:00,70.5,59.8,30.15,West,275,0.0,0.0,69,0.00,,FEW045,0.01,VWS V14.01,2013-09-28 22:40:00,
2013-09-28 18:45:00,69.9,59.7,30.15,West,275,0.0,0.0,70,0.00,,FEW045,0.01,VWS V14.01,2013-09-28 22:45:00,
2013-09-28 18:50:00,69.6,60.2,30.14,West,275,0.0,0.0,72,0.00,,FEW045,0.01,VWS V14.01,2013-09-28 22:50:00,
2013-09-28 18:55:00,69.0,60.0,30.14,West,275,0.0,0.0,73,0.00,,FEW045,0.01,VWS V14.01,2013-09-28 22:55:00,
2013-09-28 19:00:00,68.5,60.3,30.14,West,275,0.0,0.0,75,0.00,,FEW045,0.01,VWS V14.01,2013-09-28 23:00:00,
2013-09-28 19:05:00,67.8,60.0,30.14,West,275,0.0,0.0,76,0.00,,FEW045,0.01,VWS V14.01,2013-09-28 23:05:00,
2013-09-28 19:10:00,67.1,59.7,30.14,West,275,0.0,0.0,77,0.00,,FEW045,0.01,VWS V14.01,2013-09-28 23:10:00,
2013-09-28 19:15:00,66.5,59.8,30.15,West,275,0.0,0.0,79,0.00,,FEW045,0.01,VWS V14.01,2013-09-28 23:15:00,
2013-09-28 19:20:00,66.2,59.9,30.15,West,275,0.0,0.0,80,0.00,,FEW045,0.01,VWS V14.01,2013-09-28 23:20:00,
2013-09-28 19:25:00,65.9,59.9,30.15,West,275,0.0,0.0,81,0.00,,FEW045,0.01,VWS V14.01,2013-09-28 23:25:00,
2013-09-28 19:30:00,65.7,59.4,30.15,West,275,0.0,0.0,80,0.00,,FEW045,0.01,VWS V14.01,2013-09-28 23:30:00,
2013-09-28 19:35:00,65.4,59.4,30.15,West,275,0.0,0.0,81,0.00,,CLR,0.01,VWS V14.01,2013-09-28 23:35:00,
2013-09-28 19:40:00,65.0,59.7,30.15,West,275,0.0,0.0,83,0.00,,CLR,0.01,VWS V14.01,2013-09-28 23:40:00,
2013-09-28 19:45:00,64.5,59.6,30.15,West,275,0.0,0.0,84,0.00,,CLR,0.01,VWS V14.01,2013-09-28 23:45:00,
2013-09-28 19:50:00,63.8,59.2,30.15,West,275,0.0,0.0,85,0.00,,CLR,0.01,VWS V14.01,2013-09-28 23:50:00,
2013-09-28 19:55:00,63.3,59.4,30.15,West,275,0.0,0.0,87,0.00,,CLR,0.01,VWS V14.01,2013-09-28 23:55:00,
2013-09-28 20:00:00,63.0,59.1,30.15,West,275,0.0,0.0,87,0.00,,CLR,0.01,VWS V14.01,2013-09-29 00:00:00,
2013-09-28 20:05:00,62.8,59.2,30.15,West,275,0.0,0.0,88,0.00,,CLR,0.01,VWS V14.01,2013-09-29 00:05:00,
2013-09-28 20:10:00,62.4,58.8,30.16,West,275,0.0,0.0,88,0.00,,CLR,0.01,VWS V14.01,2013-09-29 00:10:00,
2013-09-28 20:15:00,62.2,58.9,30.16,West,275,0.0,0.0,89,0.00,,CLR,0.01,VWS V14.01,2013-09-29 00:15:00,
2013-09-28 20:20:00,62.1,58.5,30.16,West,275,0.0,0.0,88,0.00,,CLR,0.01,VWS V14.01,2013-09-29 00:20:00,
2013-09-28 20:25:00,61.9,58.3,30.16,West,275,0.0,0.0,88,0.00,,CLR,0.01,VWS V14.01,2013-09-29 00:25:00,
2013-09-28 20:30:00,61.6,58.6,30.16,West,275,0.0,0.0,90,0.00,,CLR,0.01,VWS V14.01,2013-09-29 00:30:00,
2013-09-28 20:35:00,61.3,58.3,30.16,West,275,0.0,0.0,90,0.00,,CLR,0.01,VWS V14.01,2013-09-29 00:35:00,
2013-09-28 20:40:00,61.1,58.2,30.16,West,275,0.0,0.0,90,0.00,,CLR,0.01,VWS V14.01,2013-09-29 00:40:00,
2013-09-28 20:45:00,61.0,58.4,30.16,West,275,0.0,0.0,91,0.00,,CLR,0.01,VWS V14.01,2013-09-29 00:45:00,
2013-09-28 20:50:00,60.7,58.1,30.17,West,275,0.0,0.0,91,0.00,,CLR,0.01,VWS V14.01,2013-09-29 00:50:00,
2013-09-28 20:55:00,60.4,58.1,30.17,West,275,0.0,0.0,92,0.00,,CLR,0.01,VWS V14.01,2013-09-29 00:55:00,
2013-09-28 21:00:00,60.3,58.0,30.17,West,275,0.0,0.0,92,0.00,,CLR,0.01,VWS V14.01,2013-09-29 01:00:00,
2013-09-28 21:05:00,60.2,57.9,30.17,West,275,0.0,0.0,92,0.00,,CLR,0.01,VWS V14.01,2013-09-29 01:05:00,
2013-09-28 21:10:00,60.0,57.4,30.17,West,275,0.0,0.0,91,0.00,,CLR,0.01,VWS V14.01,2013-09-29 01:10:00,
2013-09-28 21:15:00,59.9,57.6,30.17,West,275,0.0,0.0,92,0.00,,CLR,0.01,VWS V14.01,2013-09-29 01:15:00,
2013-09-28 21:20:00,59.6,57.6,30.17,West,275,0.0,0.0,93,0.00,,CLR,0.01,VWS V14.01,2013-09-29 01:20:00,
2013-09-28 21:25:00,59.4,57.4,30.17,West,275,0.0,0.0,93,0.00,,CLR,0.01,VWS V14.01,2013-09-29 01:25:00,
2013-09-28 21:30:00,59.3,57.3,30.17,West,275,0.0,0.0,93,0.00,,CLR,0.01,VWS V14.01,2013-09-29 01:30:00,
2013-09-28 21:35:00,59.2,57.2,30.17,West,275,0.0,0.0,93,0.00,,CLR,0.01,VWS V14.01,2013-09-29 01:35:00,
2013-09-28 21:40:00,59.1,57.1,30.17,West,275,0.0,0.0,93,0.00,,CLR,0.01,VWS V14.01,2013-09-29 01:40:00,
2013-09-28 21:45:00,59.0,57.3,30.17,West,275,0.0,0.0,94,0.00,,CLR,0.01,VWS V14.01,2013-09-29 01:45:00,
2013-09-28 21:50:00,58.9,57.2,30.17,West,275,0.0,0.0,94,0.00,,CLR,0.01,VWS V14.01,2013-09-29 01:50:00,
2013-09-28 21:55:00,58.8,57.1,30.17,West,275,0.0,0.0,94,0.00,,CLR,0.01,VWS V14.01,2013-09-29 01:55:00,
2013-09-28 22:00:00,58.7,57.0,30.18,West,275,0.0,0.0,94,0.00,,CLR,0.01,VWS V14.01,2013-09-29 02:00:00,
2013-09-28 22:05:00,58.6,56.9,30.18,West,275,0.0,0.0,94,0.00,,CLR,0.01,VWS V14.01,2013-09-29 02:05:00,
2013-09-28 22:10:00,58.5,56.5,30.18,West,275,0.0,0.0,93,0.00,,CLR,0.01,VWS V14.01,2013-09-29 02:10:00,
2013-09-28 22:15:00,58.4,56.7,30.18,West,275,0.0,0.0,94,0.00,,CLR,0.01,VWS V14.01,2013-09-29 02:15:00,
2013-09-28 22:20:00,58.2,56.5,30.18,West,275,0.0,0.0,94,0.00,,CLR,0.01,VWS V14.01,2013-09-29 02:20:00,
2013-09-28 22:26:00,58.1,56.4,30.18,West,275,0.0,0.0,94,0.00,,CLR,0.01,VWS V14.01,2013-09-29 02:26:00,
2013-09-28 22:30:00,58.0,56.3,30.18,West,275,0.0,0.0,94,0.00,,CLR,0.01,VWS V14.01,2013-09-29 02:30:00,
2013-09-28 22:31:00,58.0,56.3,30.18,West,275,0.0,0.0,94,0.00,,CLR,0.01,VWS V14.01,2013-09-29 02:31:00,
2013-09-28 22:36:00,57.9,56.2,30.18,West,275,0.0,0.0,94,0.00,,CLR,0.01,VWS V14.01,2013-09-29 02:36:00,
2013-09-28 22:41:00,57.8,56.1,30.18,West,275,0.0,0.0,94,0.00,,CLR,0.01,VWS V14.01,2013-09-29 02:41:00,
2013-09-28 22:46:00,57.7,56.3,30.18,West,275,0.0,0.0,95,0.00,,CLR,0.01,VWS V14.01,2013-09-29 02:46:00,
2013-09-28 22:51:00,57.6,56.2,30.18,West,275,0.0,0.0,95,0.00,,CLR,0.01,VWS V14.01,2013-09-29 02:51:00,
2013-09-28 22:56:00,57.5,56.1,30.18,West,275,0.0,0.0,95,0.00,,CLR,0.01,VWS V14.01,2013-09-29 02:56:00,
2013-09-28 23:00:00,57.5,55.8,30.18,West,275,0.0,0.0,94,0.00,,CLR,0.01,VWS V14.01,2013-09-29 03:00:00,
2013-09-28 23:01:00,57.4,56.0,30.18,West,275,0.0,0.0,95,0.00,,CLR,0.01,VWS V14.01,2013-09-29 03:01:00,
2013-09-28 23:06:00,57.3,55.9,30.18,West,275,0.0,0.0,95,0.00,,CLR,0.01,VWS V14.01,2013-09-29 03:06:00,
2013-09-28 23:11:00,57.2,55.8,30.18,West,275,0.0,0.0,95,0.00,,CLR,0.01,VWS V14.01,2013-09-29 03:11:00,
2013-09-28 23:16:00,57.2,55.8,30.18,West,275,0.0,0.0,95,0.00,,CLR,0.01,VWS V14.01,2013-09-29 03:16:00,
2013-09-28 23:21:00,57.1,55.7,30.18,West,275,0.0,0.0,95,0.00,,CLR,0.01,VWS V14.01,2013-09-29 03:21:00,
2013-09-28 23:26:00,57.1,55.7,30.19,West,275,0.0,0.0,95,0.00,,CLR,0.01,VWS V14.01,2013-09-29 03:26:00,
2013-09-28 23:30:00,57.0,55.6,30.19,West,275,0.0,0.0,95,0.00,,CLR,0.01,VWS V14.01,2013-09-29 03:30:00,
2013-09-28 23:31:00,57.0,55.9,30.19,West,275,0.0,0.0,96,0.00,,CLR,0.01,VWS V14.01,2013-09-29 03:31:00,
2013-09-28 23:36:00,57.0,55.9,30.19,West,275,0.0,0.0,96,0.00,,CLR,0.01,VWS V14.01,2013-09-29 03:36:00,
2013-09-28 23:41:00,57.1,56.0,30.19,West,275,0.0,0.0,96,0.00,,CLR,0.01,VWS V14.01,2013-09-29 03:41:00,
2013-09-28 23:46:00,57.2,56.1,30.18,West,275,0.0,0.0,96,0.00,,CLR,0.01,VWS V14.01,2013-09-29 03:46:00,
2013-09-28 23:51:00,57.2,56.1,30.18,West,275,0.0,0.0,96,0.00,,CLR,0.01,VWS V14.01,2013-09-29 03:51:00,
2013-09-28 23:56:00,57.2,56.1,30.19,West,275,0.0,0.0,96,0.00,,CLR,0.01,VWS V14.01,2013-09-29 03:56:00,